Location: Bailleul
(50.3375°N, 2.8513°E)
Time: 10:21:27
(UTC+00:00)

COSMOS 2428 - Pass Details

Date: 16 June 2021
Orbit: 845 x 858 km, 70.9° (Epoch: 28 July)

Event Time Altitude Azimuth Distance (km) Brightness Sun altitude
Exits shadow 22:01:00 15° 174° (S) 2,138 4.2 -12.5°
Maximum altitude 22:05:21 43° 109° (ESE) 1,189 3.2 -12.8°
Drops below altitude 10° 22:10:45 10° 40° (NE) 2,503 5.5 -13.1°
Sets 22:13:19 0° 34° (NE) 3,444 6.4 -13.3°
